When you browse on this site, cookies collect data to enhance your experience and personalize the content and advertising you see.
Visit our Privacy Policy to learn more. By continuing to use the site, you agree to this use of cookies and data.
  • In Czech Republic
  • List of Countries
  • For 7 days
  • Water Temperature
  • Satellite Maps
  • Weather Map
  • Weather Widgets
  • user-avatar
    Login

    Hourly Weather Algemesi

    Today, 15 December, Saturday

    Time Temperature Precipitation Wind Pressure Humidity
    00:00 +9°C° 0 mm 7 mps 765 mmHg 69%
    01:00 +9°C° 0 mm 7 mps 765 mmHg 70%
    02:00 +9°C° 0 mm 7 mps 765 mmHg 70%
    03:00 +9°C° 0 mm 8 mps 765 mmHg 71%
    04:00 +9°C° 0 mm 8 mps 765 mmHg 70%
    05:00 +9°C° 0 mm 8 mps 765 mmHg 70%
    06:00 +9°C° 0 mm 8 mps 765 mmHg 69%
    07:00 +10°C° 0 mm 8 mps 765 mmHg 68%
    08:00 +10°C° 0 mm 8 mps 766 mmHg 66%
    09:00 +11°C° 0 mm 8 mps 766 mmHg 65%
    10:00 +14°C° 0 mm 7 mps 766 mmHg 63%
    11:00 +15°C° 0 mm 7 mps 765 mmHg 61%
    12:00 +17°C° 0 mm 7 mps 765 mmHg 58%
    13:00 +17°C° 0 mm 7 mps 765 mmHg 58%
    14:00 +18°C° 0 mm 7 mps 764 mmHg 58%
    15:00 +18°C° 0 mm 7 mps 764 mmHg 58%
    16:00 +17°C° 0 mm 7 mps 764 mmHg 64%
    17:00 +16°C° 0 mm 7 mps 764 mmHg 70%
    18:00 +15°C° 0 mm 7 mps 765 mmHg 76%
    19:00 +15°C° 0 mm 8 mps 765 mmHg 78%
    20:00 +15°C° 0 mm 8 mps 765 mmHg 79%
    21:00 +13°C° 0 mm 8 mps 765 mmHg 81%
    22:00 +13°C° 0 mm 8 mps 765 mmHg 81%
    23:00 +14°C° 0 mm 7 mps 764 mmHg 81%

    Tomorrow, 16 December, Sunday

    Time Temperature Precipitation Wind Pressure Humidity
    00:00 +14°C° 0 mm 7 mps 764 mmHg 82%
    01:00 +14°C° 0 mm 7 mps 764 mmHg 82%
    02:00 +12°C° 0 mm 7 mps 764 mmHg 82%
    03:00 +13°C° 0 mm 6 mps 763 mmHg 82%
    04:00 +13°C° 0 mm 6 mps 763 mmHg 82%
    05:00 +13°C° 0 mm 6 mps 763 mmHg 81%
    06:00 +13°C° 0 mm 5 mps 763 mmHg 81%
    07:00 +14°C° 0 mm 6 mps 763 mmHg 77%
    08:00 +14°C° 0 mm 6 mps 763 mmHg 73%
    09:00 +15°C° 0 mm 6 mps 763 mmHg 70%
    10:00 +17°C° 0 mm 6 mps 763 mmHg 60%
    11:00 +20°C° 0 mm 7 mps 762 mmHg 51%
    12:00 +21°C° 0 mm 7 mps 762 mmHg 42%
    13:00 +21°C° 0 mm 7 mps 762 mmHg 45%
    14:00 +21°C° 0 mm 7 mps 761 mmHg 47%
    15:00 +20°C° 0 mm 8 mps 761 mmHg 50%
    16:00 +18°C° 0 mm 8 mps 762 mmHg 57%
    17:00 +17°C° 0 mm 8 mps 762 mmHg 64%
    18:00 +16°C° 0 mm 8 mps 762 mmHg 71%
    19:00 +15°C° 0 mm 8 mps 763 mmHg 73%
    20:00 +13°C° 0 mm 9 mps 764 mmHg 75%
    21:00 +12°C° 0 mm 9 mps 765 mmHg 77%
    22:00 +12°C° 0 mm 8 mps 765 mmHg 78%
    23:00 +11°C° 0 mm 8 mps 765 mmHg 79%

    Day after tomorrow, 17 December, Monday

    Time Temperature Precipitation Wind Pressure Humidity
    00:00 +11°C° 0 mm 8 mps 766 mmHg 81%
    01:00 +10°C° 0 mm 8 mps 766 mmHg 80%
    02:00 +10°C° 0 mm 8 mps 766 mmHg 80%
    03:00 +10°C° 0 mm 8 mps 766 mmHg 80%
    04:00 +9°C° 0 mm 8 mps 767 mmHg 80%
    05:00 +9°C° 0 mm 8 mps 767 mmHg 80%
    06:00 +7°C° 0 mm 8 mps 767 mmHg 81%
    07:00 +9°C° 0 mm 7 mps 768 mmHg 76%
    08:00 +9°C° 0 mm 7 mps 768 mmHg 71%
    09:00 +10°C° 0 mm 6 mps 769 mmHg 66%
    10:00 +11°C° 0 mm 6 mps 769 mmHg 56%
    11:00 +14°C° 0 mm 5 mps 769 mmHg 46%
    12:00 +15°C° 0 mm 5 mps 769 mmHg 37%
    13:00 +15°C° 0 mm 4 mps 768 mmHg 35%
    14:00 +17°C° 0 mm 3 mps 768 mmHg 33%
    15:00 +17°C° 0 mm 3 mps 768 mmHg 30%
    16:00 +15°C° 0 mm 2 mps 768 mmHg 36%
    17:00 +13°C° 0 mm 2 mps 768 mmHg 41%
    18:00 +12°C° 0 mm 2 mps 769 mmHg 46%
    19:00 +10°C° 0 mm 2 mps 769 mmHg 47%
    20:00 +10°C° 0 mm 2 mps 770 mmHg 48%
    21:00 +10°C° 0 mm 2 mps 770 mmHg 49%
    22:00 +9°C° 0 mm 2 mps 770 mmHg 52%
    23:00 +9°C° 0 mm 3 mps 769 mmHg 54%

    18 December, Tuesday

    Time Temperature Precipitation Wind Pressure Humidity
    00:00 +9°C° 0 mm 3 mps 769 mmHg 56%
    01:00 +9°C° 0 mm 2 mps 769 mmHg 59%
    02:00 +9°C° 0 mm 2 mps 769 mmHg 62%
    03:00 +8°C° 0 mm 2 mps 768 mmHg 65%
    04:00 +8°C° 0 mm 2 mps 768 mmHg 67%
    05:00 +9°C° 0 mm 2 mps 768 mmHg 68%
    06:00 +9°C° 0 mm 2 mps 768 mmHg 70%
    07:00 +10°C° 0 mm 2 mps 768 mmHg 69%
    08:00 +11°C° 0 mm 3 mps 768 mmHg 69%
    09:00 +12°C° 0 mm 3 mps 768 mmHg 68%
    10:00 +13°C° 0 mm 3 mps 768 mmHg 63%
    11:00 +16°C° 0 mm 3 mps 767 mmHg 57%
    12:00 +18°C° 0 mm 3 mps 767 mmHg 52%
    13:00 +18°C° 0 mm 3 mps 766 mmHg 48%
    14:00 +18°C° 0 mm 4 mps 765 mmHg 45%
    15:00 +19°C° 0 mm 4 mps 765 mmHg 42%
    16:00 +17°C° 0 mm 4 mps 765 mmHg 46%
    17:00 +15°C° 0 mm 4 mps 765 mmHg 50%
    18:00 +13°C° 0 mm 4 mps 766 mmHg 54%
    19:00 +13°C° 0 mm 4 mps 766 mmHg 57%
    20:00 +13°C° 0 mm 4 mps 766 mmHg 60%
    21:00 +12°C° 0 mm 4 mps 766 mmHg 63%
    22:00 +12°C° 0 mm 4 mps 766 mmHg 62%
    23:00 +12°C° 0 mm 4 mps 766 mmHg 61%

    19 December, Wednesday

    Time Temperature Precipitation Wind Pressure Humidity
    00:00 +13°C° 0 mm 4 mps 765 mmHg 61%
    01:00 +13°C° 0 mm 4 mps 765 mmHg 60%
    02:00 +12°C° 0 mm 4 mps 765 mmHg 59%
    03:00 +12°C° 0 mm 4 mps 765 mmHg 58%
    04:00 +13°C° 0 mm 4 mps 765 mmHg 61%
    05:00 +13°C° 0 mm 4 mps 765 mmHg 63%
    06:00 +13°C° 0 mm 4 mps 764 mmHg 66%
    07:00 +13°C° 0.2 mm 4 mps 765 mmHg 71%
    08:00 +14°C° 0.2 mm 5 mps 765 mmHg 76%
    09:00 +14°C° 0.2 mm 5 mps 765 mmHg 81%
    10:00 +14°C° 0.3 mm 5 mps 765 mmHg 81%
    11:00 +15°C° 0.3 mm 5 mps 765 mmHg 81%
    12:00 +16°C° 0.3 mm 5 mps 765 mmHg 80%
    13:00 +16°C° 0.2 mm 5 mps 764 mmHg 79%
    14:00 +16°C° 0.2 mm 5 mps 764 mmHg 78%
    15:00 +16°C° 0.2 mm 5 mps 764 mmHg 76%
    16:00 +15°C° 0 mm 5 mps 764 mmHg 79%
    17:00 +14°C° 0 mm 5 mps 764 mmHg 82%
    18:00 +13°C° 0 mm 5 mps 764 mmHg 86%
    19:00 +13°C° 0 mm 5 mps 765 mmHg 86%
    20:00 +12°C° 0 mm 5 mps 765 mmHg 87%
    21:00 +12°C° 0 mm 5 mps 765 mmHg 88%
    22:00 +11°C° 0 mm 4 mps 765 mmHg 88%
    23:00 +11°C° 0 mm 4 mps 765 mmHg 88%

    20 December, Thursday

    Time Temperature Precipitation Wind Pressure Humidity
    00:00 +11°C° 0 mm 4 mps 765 mmHg 88%
    01:00 +11°C° 0 mm 3 mps 765 mmHg 87%
    02:00 +11°C° 0 mm 3 mps 765 mmHg 87%
    03:00 +10°C° 0 mm 3 mps 765 mmHg 86%
    04:00 +11°C° 0 mm 3 mps 765 mmHg 85%
    05:00 +11°C° 0 mm 3 mps 765 mmHg 84%
    06:00 +11°C° 0 mm 3 mps 765 mmHg 84%
    07:00 +11°C° 0 mm 3 mps 765 mmHg 82%
    08:00 +12°C° 0 mm 3 mps 765 mmHg 80%
    09:00 +12°C° 0 mm 3 mps 765 mmHg 79%
    10:00 +13°C° 0 mm 3 mps 765 mmHg 73%
    11:00 +14°C° 0 mm 3 mps 765 mmHg 68%
    12:00 +15°C° 0 mm 4 mps 764 mmHg 63%
    13:00 +17°C° 0 mm 4 mps 764 mmHg 59%
    14:00 +17°C° 0 mm 4 mps 763 mmHg 56%
    15:00 +18°C° 0 mm 4 mps 763 mmHg 52%
    16:00 +16°C° 0 mm 3 mps 763 mmHg 57%
    17:00 +14°C° 0 mm 3 mps 764 mmHg 61%
    18:00 +13°C° 0 mm 3 mps 764 mmHg 66%
    19:00 +12°C° 0 mm 3 mps 764 mmHg 65%
    20:00 +12°C° 0 mm 4 mps 764 mmHg 64%
    21:00 +11°C° 0 mm 4 mps 765 mmHg 63%
    22:00 +11°C° 0 mm 4 mps 765 mmHg 64%
    23:00 +11°C° 0 mm 4 mps 765 mmHg 64%
    Show more